Location: Cambridge (historical)
(38.6883°N, 119.0140°W)
Time: 16:40:54
(UTC+00:00)

VELOX 1 - Visible Passes

Search period start: 25 September 2021 00:00
Search period end: 05 October 2021 00:00
Orbit: 626 x 643 km, 98.3° (Epoch: 25 September)

Date Brightness Start Highest point End Pass type
(mag) Time Alt. Az. Time Alt. Az. Time Alt. Az.
25 Sep ? 10:50:38 24° NE 10:50:38 24° NE 10:53:05 10° N visible
25 Sep ? 12:28:07 15° NW 12:28:07 15° NW 12:29:15 10° NW visible
26 Sep ? 11:12:57 28° NNE 11:12:57 28° NNE 11:15:14 10° N visible
27 Sep ? 11:35:15 26° N 11:35:15 26° N 11:37:09 10° NNW visible
28 Sep ? 10:20:04 12° NE 10:20:04 12° NE 10:20:46 10° NE visible
28 Sep ? 11:57:33 19° NNW 11:57:33 19° NNW 11:58:51 10° NNW visible
29 Sep ? 10:42:23 16° NNE 10:42:23 16° NNE 10:43:35 10° NNE visible
29 Sep ? 12:19:52 12° NW 12:19:52 12° NW 12:20:18 10° NW visible
30 Sep ? 11:04:42 17° NNE 11:04:42 17° NNE 11:05:53 10° N visible
01 Oct ? 11:27:00 16° N 11:27:00 16° N 11:27:53 10° N visible
02 Oct ? 11:49:20 12° NNW 11:49:20 12° NNW 11:49:42 10° NNW visible
